Temp
-5 -5 -5 -5 -5 -5 -5 -5 -5 -5 -6 -6 -7 -7 -7 -7 -7 -7 -7 -6 -7 -7 -7 -7 -7 -6 -7 -7 -6 -7 -7 -7 -7 -7 -7 -7 -7 -7 -7 -7 -7 -7 -7
-5 -5 -5 -5 -5 -5 -5 -5 -6 -6 -7 -7 -7 -7 -7 -7 -7 -7 -7 -7 -6 -6 -6 -6 -6 -6 -7 -6 -6 -7 -7 -7 -7 -7 -7 -7 -7 -8 -8 -7 -7 -7 -8
-5 -5 -5 -5 -5 -5 -5 -5 -6 -6 -6 -7 -7 -7 -7 -7 -7 -7 -7 -7 -7 -6 -6 -6 -6 -6 -6 -6 -7 -6 -6 -6 -7 -7 -7 -6 -7 -7 -7 -7 -7 -7 -7
-6 -5 -5 -5 -6 -5 -6 -6 -6 -6 -6 -7 -7 -7 -8 -7 -7 -7 -6 -6 -7 -7 -6 -7 -6 -6 -6 -6 -7 -6 -6 -6 -6 -7 -7 -7 -7 -7 -7 -7 -7 -7 -7
-6 -6 -6 -5 -6 -6 -6 -6 -6 -7 -7 -7 -6 -7 -7 -7 -7 -7 -7 -7 -7 -7 -6 -6 -6 -6 -6 -6 -7 -6 -6 -7 -7 -7 -7 -7 -7 -7 -7 -7 -7 -8 -7
-6 -6 -6 -5 -5 -6 -6 -6 -6 -7 -7 -7 -7 -7 -7 -7 -8 -7 -7 -7 -7 -6 -6 -6 -6 -6 -6 -6 -7 -6 -7 -6 -7 -7 -7 -7 -7 -7 -7 -6 -6 -7 -7
-6 -6 -6 -5 -5 -6 -6 -6 -6 -7 -7 -7 -7 -7 -7 -7 -8 -8 -7 -8 -7 -7 -7 -7 -7 -7 -6 -6 -7 -7 -7 -7 -7 -7 -7 -7 -7 -7 -7 -6 -6 -7 -7
-6 -6 -6 -5 -6 -6 -6 -6 -6 -6 -7 -7 -7 -7 -8 -8 -8 -8 -8 -8 -8 -7 -7 -7 -7 -7 -7 -7 -7 -7 -7 -7 -6 -7 -7 -7 -7 -7 -7 -7 -7 -7 -6
-6 -6 -6 -6 -6 -6 -6 -6 -6 -6 -7 -7 -7 -8 -8 -9 -8 -7 -7 -7 -8 -8 -8 -8 -7 -7 -7 -7 -7 -6 -7 -7 -6 -7 -7 -7 -7 -6 -6 -7 -7 -7 -7
-6 -6 -7 -6 -6 -6 -6 -6 -7 -7 -7 -7 -7 -8 -8 -8 -8 -7 -8 -8 -8 -8 -8 -8 -7 -7 -7 -6 -6 -7 -7 -7 -6 -6 -6 -6 -6 -6 -6 -6 -6 -6 -7
-7 -7 -7 -7 -6 -7 -7 -7 -7 -7 -7 -8 -8 -7 -7 -7 -8 -8 -8 -8 -8 -7 -8 -7 -7 -7 -7 -6 -6 -6 -7 -7 -6 -6 -6 -6 -6 -6 -6 -6 -6 -6 -6
-7 -7 -7 -7 -7 -7 -7 -7 -7 -8 -8 -8 -7 -7 -7 -7 -7 -7 -7 -7 -7 -7 -7 -7 -7 -7 -7 -7 -7 -6 -6 -6 -6 -7 -6 -6 -6 -6 -6 -6 -6 -6 -6
-7 -7 -7 -7 -7 -7 -7 -8 -8 -8 -8 -8 -7 -7 -7 -7 -7 -7 -7 -7 -7 -7 -7 -7 -7 -7 -7 -7 -7 -6 -6 -6 -7 -6 -6 -6 -6 -6 -6 -6 -6 -6 -6
-8 -8 -8 -8 -7 -7 -8 -8 -8 -8 -8 -8 -7 -7 -7 -7 -8 -8 -8 -7 -7 -7 -6 -6 -6 -6 -6 -6 -6 -6 -6 -5 -6 -6 -6 -6 -6 -6 -6 -6 -6 -6 -6
-9 -9 -9 -9 -9 -8 -8 -8 -9 -9 -8 -8 -8 -8 -8 -7 -7 -7 -7 -7 -7 -7 -7 -7 -6 -6 -6 -6 -6 -6 -6 -6 -6 -6 -6 -6 -6 -6 -6 -6 -6 -6 -6
-9 -9 -9 -9 -10 -10 -9 -9 -9 -9 -8 -8 -8 -8 -8 -8 -7 -7 -7 -7 -7 -7 -7 -7 -7 -6 -7 -6 -6 -6 -6 -6 -6 -6 -6 -6 -6 -6 -6 -6 -6 -6 -6
-7 -8 -8 -9 -9 -9 -10 -9 -9 -9 -9 -8 -8 -8 -9 -8 -8 -7 -7 -7 -7 -7 -7 -6 -6 -6 -6 -6 -6 -6 -6 -6 -6 -6 -6 -6 -6 -6 -6 -6 -6 -6 -6
-8 -7 -8 -9 -9 -9 -10 -8 -8 -9 -9 -9 -8 -8 -8 -8 -8 -8 -8 -8 -8 -7 -7 -7 -7 -6 -6 -6 -6 -6 -6 -6 -6 -6 -6 -6 -6 -7 -7 -7 -7 -6 -6
-8 -8 -8 -8 -8 -8 -7 -8 -8 -8 -9 -10 -9 -8 -8 -8 -8 -8 -8 -8 -8 -8 -7 -7 -7 -7 -7 -6 -6 -6 -6 -6 -6 -6 -6 -6 -6 -6 -6 -6 -6 -7 -7
-9 -8 -8 -9 -9 -8 -8 -8 -7 -8 -8 -9 -9 -8 -9 -8 -8 -8 -8 -8 -8 -8 -7 -7 -7 -7 -7 -7 -6 -6 -6 -6 -6 -6 -6 -6 -7 -7 -7 -7 -7 -7 -7
-8 -8 -9 -9 -9 -9 -8 -8 -7 -8 -8 -9 -9 -9 -9 -8 -8 -8 -8 -8 -8 -8 -8 -8 -7 -7 -7 -7 -7 -6 -6 -6 -7 -7 -7 -7 -7 -7 -7 -7 -7 -7 -8
-8 -8 -9 -9 -9 -9 -8 -9 -8 -8 -9 -10 -10 -9 -9 -8 -8 -8 -8 -9 -9 -9 -8 -8 -8 -8 -7 -7 -7 -7 -8 -8 -8 -8 -8 -8 -8 -8 -8 -8 -8 -8 -8
-8 -9 -9 -9 -9 -9 -9 -9 -8 -9 -9 -10 -10 -9 -8 -8 -8 -9 -9 -9 -9 -9 -8 -8 -8 -8 -8 -8 -8 -8 -8 -8 -8 -9 -9 -8 -8 -8 -8 -8 -8 -8 -9
-8 -8 -9 -9 -9 -9 -9 -9 -9 -9 -9 -9 -9 -9 -8 -9 -9 -9 -9 -9 -9 -9 -9 -9 -9 -9 -9 -9 -9 -9 -9 -9 -9 -9 -9 -9 -9 -9 -9 -9 -9 -9 -9
-8 -8 -9 -9 -9 -9 -10 -10 -10 -10 -10 -9 -10 -9 -9 -9 -9 -9 -9 -10 -10 -10 -10 -10 -10 -10 -10 -10 -10 -9 -9 -10 -9 -10 -10 -10 -10 -10 -10 -10 -10 -9 -9
-9 -9 -9 -8 -9 -9 -10 -10 -10 -10 -10 -10 -9 -9 -10 -9 -10 -10 -10 -10 -10 -11 -11 -10 -10 -10 -10 -10 -10 -10 -10 -10 -10 -10 -10 -10 -10 -10 -11 -10 -10 -10 -10
Height
5891 5888 5885 5884 5882 5881 5882 5884 5883 5883 5887 5890 5892 5893 5895 5896 5896 5897 5899 5899 5899 5899 5900 5901 5902 5904 5905 5905 5906 5906 5907 5907 5906 5906 5906 5907 5908 5909 5909 5908 5909 5910 5910
5889 5888 5886 5882 5880 5881 5882 5883 5883 5885 5886 5889 5892 5893 5893 5894 5895 5896 5896 5895 5896 5895 5896 5897 5900 5901 5903 5905 5904 5904 5906 5906 5906 5905 5906 5906 5907 5906 5907 5908 5908 5910 5910
5887 5888 5887 5883 5880 5879 5881 5881 5882 5885 5886 5888 5890 5891 5891 5892 5893 5892 5893 5892 5892 5891 5891 5894 5898 5900 5901 5903 5903 5903 5905 5905 5906 5905 5905 5903 5905 5905 5906 5908 5908 5909 5909
5886 5886 5885 5884 5881 5879 5880 5881 5882 5884 5886 5887 5889 5888 5889 5890 5891 5890 5890 5888 5888 5888 5890 5892 5896 5900 5901 5903 5904 5903 5904 5905 5906 5906 5906 5905 5905 5906 5906 5905 5905 5906 5907
5884 5884 5884 5883 5882 5880 5881 5881 5882 5884 5885 5886 5887 5887 5889 5889 5888 5888 5887 5886 5886 5887 5889 5892 5896 5899 5901 5903 5904 5904 5904 5905 5905 5906 5907 5906 5906 5905 5904 5903 5902 5904 5906
5883 5883 5883 5883 5882 5881 5880 5881 5883 5883 5885 5887 5887 5887 5888 5887 5887 5887 5886 5886 5885 5887 5889 5892 5895 5898 5900 5902 5903 5904 5905 5906 5906 5906 5907 5907 5907 5906 5905 5904 5903 5904 5906
5882 5881 5882 5882 5881 5881 5881 5882 5883 5884 5886 5887 5888 5888 5887 5887 5887 5886 5887 5886 5887 5888 5889 5891 5894 5897 5900 5902 5902 5903 5904 5905 5906 5907 5907 5907 5907 5906 5905 5905 5904 5904 5904
5881 5879 5880 5882 5881 5882 5883 5883 5884 5885 5887 5888 5888 5887 5887 5886 5885 5884 5885 5886 5887 5889 5891 5892 5894 5897 5899 5901 5902 5902 5904 5905 5906 5907 5907 5907 5906 5906 5905 5904 5904 5904 5903
5880 5879 5879 5881 5882 5882 5882 5883 5884 5885 5886 5887 5886 5886 5886 5885 5885 5883 5882 5882 5884 5888 5890 5892 5894 5896 5898 5900 5901 5902 5904 5904 5905 5906 5906 5905 5905 5905 5905 5905 5904 5904 5903
5878 5878 5880 5881 5880 5880 5881 5883 5884 5886 5886 5885 5886 5886 5887 5886 5884 5882 5883 5883 5886 5889 5890 5892 5894 5896 5898 5899 5900 5902 5903 5903 5904 5904 5904 5904 5904 5905 5904 5904 5904 5904 5904
5874 5877 5879 5881 5882 5882 5882 5882 5883 5885 5885 5885 5887 5888 5888 5888 5887 5887 5886 5886 5888 5890 5892 5892 5894 5896 5897 5898 5899 5901 5902 5902 5902 5902 5902 5902 5903 5904 5904 5903 5903 5902 5902
5871 5875 5878 5879 5881 5881 5881 5882 5881 5883 5886 5887 5887 5888 5887 5887 5888 5888 5888 5889 5889 5890 5892 5893 5894 5895 5895 5897 5899 5900 5901 5901 5901 5900 5900 5900 5900 5901 5902 5902 5901 5901 5900
5869 5873 5875 5876 5876 5877 5878 5880 5881 5881 5883 5885 5885 5885 5885 5886 5887 5887 5888 5890 5891 5890 5891 5891 5892 5894 5894 5895 5896 5897 5897 5897 5898 5898 5898 5898 5898 5898 5898 5898 5898 5897 5897
5868 5870 5873 5874 5875 5875 5876 5877 5879 5880 5882 5882 5883 5883 5884 5884 5884 5885 5886 5887 5888 5889 5890 5890 5890 5891 5892 5892 5892 5893 5893 5893 5893 5894 5894 5894 5894 5893 5894 5894 5893 5894 5893
5865 5868 5870 5870 5871 5872 5872 5872 5873 5876 5877 5878 5880 5882 5883 5882 5883 5882 5883 5884 5886 5887 5888 5889 5889 5888 5888 5888 5887 5888 5888 5888 5888 5888 5888 5888 5888 5888 5888 5888 5888 5889 5888
5863 5864 5865 5863 5864 5868 5870 5870 5868 5869 5870 5872 5876 5878 5879 5880 5880 5880 5880 5880 5880 5881 5883 5884 5885 5886 5885 5884 5883 5883 5882 5882 5882 5882 5882 5881 5881 5881 5881 5881 5880 5880 5880
5861 5862 5862 5862 5863 5865 5864 5860 5861 5863 5867 5871 5869 5870 5871 5873 5874 5876 5876 5876 5876 5877 5878 5878 5879 5879 5879 5878 5878 5877 5877 5876 5876 5875 5875 5874 5874 5874 5873 5872 5872 5871 5871
5857 5858 5858 5855 5856 5856 5849 5839 5851 5852 5856 5862 5864 5865 5865 5866 5867 5868 5869 5869 5870 5871 5872 5873 5872 5872 5872 5871 5870 5870 5869 5869 5868 5868 5867 5867 5866 5866 5865 5864 5862 5861 5860
5849 5850 5851 5850 5846 5842 5829 5840 5838 5843 5845 5850 5858 5859 5860 5860 5861 5862 5862 5863 5864 5864 5864 5865 5866 5865 5864 5864 5864 5864 5861 5861 5860 5860 5859 5858 5857 5856 5855 5854 5853 5851 5849
5843 5844 5845 5846 5842 5836 5832 5831 5827 5830 5837 5841 5849 5852 5852 5855 5855 5856 5856 5857 5857 5858 5859 5859 5859 5859 5858 5856 5855 5855 5854 5852 5850 5848 5847 5846 5846 5844 5843 5841 5840 5839 5837
5839 5839 5840 5839 5838 5834 5830 5825 5815 5823 5832 5836 5843 5848 5848 5848 5848 5850 5850 5850 5850 5851 5851 5851 5852 5850 5849 5848 5846 5843 5840 5839 5837 5836 5835 5834 5832 5831 5830 5829 5828 5826 5824
5831 5830 5831 5830 5830 5828 5827 5825 5824 5826 5827 5833 5838 5840 5841 5841 5842 5842 5843 5842 5842 5843 5844 5843 5843 5841 5838 5837 5835 5833 5831 5830 5828 5824 5823 5822 5820 5819 5817 5815 5814 5813 5811
5821 5821 5822 5821 5819 5817 5818 5820 5821 5823 5827 5831 5833 5834 5835 5835 5835 5834 5834 5834 5833 5834 5833 5832 5832 5830 5828 5826 5824 5822 5820 5818 5816 5814 5812 5810 5808 5806 5804 5802 5800 5799 5798
5813 5813 5815 5814 5812 5812 5815 5815 5816 5819 5820 5821 5825 5827 5826 5826 5825 5825 5825 5824 5824 5823 5823 5822 5821 5819 5817 5816 5815 5813 5811 5809 5807 5804 5802 5799 5796 5794 5790 5788 5786 5784 5783
5808 5807 5807 5807 5808 5809 5811 5813 5812 5814 5816 5817 5818 5818 5817 5816 5816 5815 5815 5814 5813 5813 5812 5810 5808 5806 5804 5802 5801 5799 5796 5794 5791 5789 5787 5784 5783 5780 5779 5776 5774 5772 5770
5801 5801 5802 5802 5803 5802 5803 5807 5808 5810 5810 5810 5809 5808 5807 5807 5806 5805 5804 5804 5803 5803 5802 5799 5797 5795 5793 5791 5788 5786 5784 5781 5778 5775 5773 5770 5768 5766 5764 5762 5761 5759 5758
Wind_Speed
9 9 9 12 9 10 13 14 11 9 20 18 15 12 10 11 9 8 10 12 15 14 14 12 9 8 6 6 6 7 5 1 3 10 1 2 4 4 6 5 4 3 4
9 10 11 9 3 3 5 10 9 14 18 13 11 7 8 9 8 7 8 9 14 17 16 17 12 10 10 7 2 3 4 2 5 3 2 5 3 3 8 7 6 6 5
9 9 13 8 2 4 6 9 10 8 8 8 6 8 8 9 8 9 6 11 17 17 12 12 11 12 12 11 4 3 1 4 2 0 3 6 4 1 9 10 9 9 8
9 8 10 5 3 3 4 8 7 7 7 6 6 7 9 9 7 6 8 8 10 11 8 7 12 13 12 11 6 2 3 1 1 3 4 8 6 5 3 6 12 9 8
7 7 9 5 1 2 5 6 7 7 8 4 5 8 5 7 6 5 8 9 7 5 9 8 12 13 11 9 7 3 3 1 1 3 4 4 5 6 8 9 9 12 10
5 5 7 8 2 3 3 5 8 8 7 6 6 7 4 1 3 5 4 2 5 6 8 11 11 12 10 8 6 4 3 2 2 1 0 2 3 5 8 10 4 8 7
7 3 7 9 3 4 4 6 7 8 8 11 7 6 3 2 3 4 7 8 6 4 9 12 11 10 9 7 7 6 4 3 3 1 1 1 3 3 5 6 6 3 3
10 3 7 11 7 8 8 9 10 11 12 10 8 7 5 6 6 6 10 10 10 10 10 10 10 10 9 8 6 4 4 3 3 3 3 3 3 4 2 4 4 4 3
10 6 8 10 9 10 11 10 9 10 10 9 8 7 4 5 10 10 15 13 10 12 10 10 9 8 8 7 6 5 5 5 5 5 4 4 3 3 4 3 3 3 5
10 7 7 11 11 12 12 11 11 11 11 10 7 6 4 3 7 11 13 11 9 9 11 10 8 8 7 7 7 6 6 5 5 4 3 1 2 2 2 3 3 3 4
10 6 8 10 10 12 9 10 10 10 10 10 10 9 8 4 5 11 10 7 6 6 5 5 4 6 6 6 5 5 5 4 3 3 5 4 5 5 5 4 4 6 7
9 6 9 9 10 10 11 12 10 11 11 11 13 12 9 7 4 3 4 3 3 6 6 6 5 5 6 5 4 4 4 5 5 5 6 6 7 7 7 7 7 8 9
7 8 10 14 13 13 13 14 13 13 13 14 13 11 9 8 7 5 5 6 7 7 8 7 8 9 8 8 9 9 9 8 10 10 10 11 11 13 12 12 12 11 11
7 9 10 15 17 16 16 16 18 17 18 19 14 11 11 10 10 9 8 8 8 9 9 9 10 10 11 11 12 14 14 15 16 16 17 17 16 18 18 19 19 18 17
8 9 12 16 20 22 23 22 24 21 20 17 14 12 14 11 11 9 8 8 10 11 12 13 13 14 14 15 16 17 18 18 19 20 21 22 22 22 23 23 24 24 24
9 12 13 21 26 25 26 26 32 28 27 24 18 17 14 15 15 13 12 13 13 14 16 16 16 17 18 19 20 21 21 22 23 23 24 25 26 26 27 28 29 29 30
13 12 19 22 22 32 33 35 36 35 32 27 22 21 17 16 16 15 14 14 14 15 16 18 19 22 23 24 24 25 25 26 27 28 28 29 29 29 30 32 33 33 34
11 15 18 22 28 36 51 33 45 45 43 32 27 24 21 19 18 17 17 15 16 16 18 19 20 21 23 24 26 27 28 29 29 30 31 31 32 32 33 34 35 36 38
14 14 18 19 24 31 48 34 34 47 45 37 31 26 24 21 19 18 18 18 17 18 20 21 21 22 22 24 25 27 28 30 31 31 32 33 34 36 37 37 39 40 41
12 15 20 23 27 28 32 30 30 34 39 46 35 27 21 21 19 20 21 20 19 20 22 22 24 25 25 25 27 29 32 34 35 36 38 38 39 40 42 43 44 44 46
21 24 21 20 25 23 26 27 18 38 29 25 24 24 24 22 22 23 24 23 24 26 27 28 29 30 32 33 34 34 34 36 37 37 37 38 39 40 42 43 44 45 46
24 26 27 24 27 30 22 12 9 19 17 19 25 29 27 25 23 23 25 26 28 29 30 32 35 36 35 36 37 38 39 39 40 39 41 43 43 44 44 45 46 45 45
28 26 26 26 28 20 19 17 15 15 23 30 31 28 27 25 25 25 25 27 29 32 34 35 37 38 37 38 39 40 41 42 44 44 45 46 47 48 49 49 49 48 46
30 24 29 33 22 19 20 20 15 18 24 27 21 24 24 24 26 27 29 30 32 34 36 38 39 40 40 40 42 43 44 44 45 46 47 48 49 49 48 47 45 44 43
28 25 26 24 21 20 20 21 19 20 24 24 24 26 26 28 29 30 31 32 33 35 36 36 37 38 39 40 42 43 44 45 46 47 46 46 45 44 44 43 43 43 43
26 20 22 24 24 24 22 25 27 30 32 32 32 29 29 29 30 30 32 33 35 36 37 39 41 41 42 43 44 45 46 45 44 45 44 42 41 41 39 39 39 40 41
Wind_Direction
324 328 326 297 277 269 249 244 266 191 177 194 212 215 233 247 260 273 285 283 282 268 254 263 270 239 212 220 245 254 238 337 352 341 357 322 257 265 248 255 224 249 181
311 323 332 325 233 216 252 247 188 171 181 192 202 220 236 254 263 262 270 286 278 272 256 252 254 234 202 195 230 203 220 206 359 285 325 275 290 251 213 228 215 215 219
281 309 317 350 349 218 229 216 180 175 175 196 217 226 248 256 272 250 255 255 265 273 261 240 238 216 193 188 204 119 161 257 265 202 312 341 168 136 200 213 219 211 208
274 297 305 338 38 108 172 175 173 163 181 185 226 239 252 261 254 257 254 283 242 281 222 202 187 196 202 208 242 125 136 159 193 34 42 91 92 77 66 256 220 207 211
273 280 295 288 237 148 146 140 163 174 172 187 254 199 194 262 272 256 266 271 248 268 191 202 186 194 208 205 232 173 160 327 193 78 90 37 35 21 14 7 213 200 198
281 256 284 273 231 186 160 170 179 176 186 192 151 158 160 161 250 240 233 259 201 183 170 159 178 191 193 199 219 208 206 227 160 196 191 337 351 6 6 18 70 189 207
300 288 281 265 209 191 178 185 179 178 169 162 165 167 178 165 182 167 176 132 147 144 178 169 172 178 192 204 208 221 226 224 223 247 232 300 351 7 4 15 40 66 248
292 296 273 254 216 196 189 184 177 178 180 179 172 154 176 217 198 169 154 133 136 143 150 168 165 175 192 204 213 216 219 232 248 241 249 283 336 333 348 356 357 350 2
283 278 251 245 220 210 206 200 195 196 182 178 169 153 130 231 221 185 176 152 135 139 143 148 158 175 188 190 189 198 208 223 251 258 259 281 303 326 346 311 298 309 285
252 264 259 240 225 224 221 207 196 196 194 174 166 163 150 290 358 191 110 100 111 134 146 139 154 175 188 193 203 210 227 232 238 255 257 239 309 294 332 338 325 317 286
216 245 247 247 223 217 214 213 203 217 202 197 183 183 186 198 94 105 107 109 118 80 134 135 160 173 175 185 195 199 204 216 221 231 263 257 261 273 282 285 293 295 297
198 206 235 237 225 218 212 220 193 199 214 207 197 199 191 193 184 156 141 90 178 153 156 171 172 183 183 185 205 222 226 228 231 234 250 265 270 269 267 273 273 274 280
199 219 232 240 231 217 217 219 208 201 207 214 212 207 201 200 203 209 213 222 236 226 208 213 218 219 223 224 228 234 238 247 261 261 257 266 268 276 274 272 272 273 274
220 227 238 240 250 241 225 215 221 219 216 221 218 225 231 226 220 221 224 235 251 263 257 249 248 248 247 249 254 256 256 259 259 258 263 265 264 268 271 273 275 275 274
248 247 233 241 245 237 232 219 210 217 230 222 216 225 235 233 236 239 248 248 248 250 257 261 260 257 259 261 261 264 266 265 265 267 266 267 268 269 271 271 272 274 274
251 242 255 239 241 235 230 229 218 220 214 214 223 235 241 252 251 252 258 262 262 265 266 267 267 272 274 271 270 270 270 272 273 271 269 269 271 271 272 271 271 271 268
264 271 261 262 269 253 240 228 224 211 218 219 212 217 222 239 248 254 258 261 265 270 271 272 272 270 271 272 274 274 272 271 273 274 275 273 272 271 270 271 271 271 271
276 288 275 270 263 250 257 275 238 220 218 212 217 218 221 230 241 252 258 260 265 264 266 269 268 268 269 268 268 269 271 272 273 274 275 276 277 275 274 272 272 272 273
271 277 278 282 289 284 266 281 283 234 208 204 214 220 226 234 240 249 254 260 268 271 272 274 274 272 271 272 274 273 271 273 273 274 275 274 275 276 277 277 275 275 274
248 265 276 282 284 283 275 288 286 224 203 210 206 218 230 240 246 253 259 262 269 272 274 272 273 276 277 279 282 281 279 276 274 273 273 274 275 275 274 274 274 274 274
262 274 264 278 277 282 287 293 261 211 205 201 213 230 235 241 248 255 260 268 272 272 270 273 275 276 279 279 276 273 271 274 273 272 273 275 277 278 279 279 279 278 277
281 276 276 275 266 277 285 252 209 208 206 224 234 236 240 244 251 259 268 273 275 276 277 279 279 278 276 276 276 276 275 273 272 271 273 276 277 278 279 280 280 279 278
284 270 265 273 286 271 271 258 258 252 233 231 234 241 246 253 261 268 272 275 276 279 280 281 280 280 280 279 278 277 277 277 277 278 278 278 279 280 281 283 282 280 280
281 272 266 271 268 250 256 261 256 267 265 247 233 244 251 260 265 268 270 273 277 278 280 281 281 281 282 282 282 281 281 282 282 282 282 282 283 285 285 285 284 283 281
282 285 275 266 253 252 253 254 260 269 267 262 255 258 263 266 270 274 276 277 279 279 279 279 279 278 279 280 281 282 282 282 282 283 284 283 283 283 281 281 282 282 282
277 274 256 258 258 259 254 254 259 260 263 265 267 268 268 270 272 276 278 278 279 280 282 282 281 281 281 281 283 285 286 289 290 289 289 287 287 285 282 281 280 279 278